FW4624 Weather Reports


time (UTC)temp
C
wind
direction
speed
KPH
gust
KPH
rain 1hr
cm
rain 24hr
cm
rain mn
cm
humidity
%
barometer
mb
20260509051501 7 35 1.6 6.4 0.00 0.00 0.00 93 1020.2
20260509051100 6 35 1.6 6.4 0.00 0.00 0.00 93 1020.2
20260509050600 6 35 0.0 3.2 0.00 0.00 0.00 93 1020.0
20260509050059 6 35 0.0 1.6 0.00 0.00 0.00 93 1019.9
20260509045600 6 35 0.0 3.2 0.00 0.00 0.00 93 1019.9
20260509045100 6 35 0.0 3.2 0.00 0.00 0.00 93 1019.9
20260509044700 6 35 0.0 0.0 0.00 0.00 0.00 93 1019.9
20260509044100 6 35 0.0 0.0 0.00 0.00 0.00 93 1019.9
20260509043559 5 35 0.0 0.0 0.00 0.00 0.00 93 1019.9
20260509043058 5 35 0.0 0.0 0.00 0.00 0.00 93 1019.8
20260509042558 5 35 0.0 0.0 0.00 0.00 0.00 93 1019.8
20260509042100 5 35 0.0 0.0 0.00 0.00 0.00 93 1019.7
20260509041558 5 35 0.0 0.0 0.00 0.00 0.00 93 1019.7
20260509041059 5 35 0.0 0.0 0.00 0.00 0.00 93 1019.7
20260509040556 5 35 0.0 0.0 0.00 0.00 0.00 93 1019.7
20260509040057 5 35 0.0 0.0 0.00 0.00 0.00 93 1019.7
20260509035556 5 35 0.0 0.0 0.00 0.03 0.00 93 1019.7
20260509035056 5 35 0.0 0.0 0.00 0.03 0.00 93 1019.7
20260509034556 5 35 0.0 1.6 0.00 0.03 0.00 93 1019.7
20260509034055 5 35 0.0 3.2 0.00 0.03 0.00 93 1019.7
20260509033555 5 35 0.0 1.6 0.00 0.03 0.00 93 1019.7
20260509033054 6 35 0.0 1.6 0.00 0.03 0.00 93 1019.6
20260509032554 6 35 0.0 3.2 0.00 0.03 0.00 93 1019.6
20260509032053 6 35 0.0 3.2 0.00 0.03 0.00 93 1019.7
20260509031553 6 35 0.0 3.2 0.00 0.03 0.00 93 1019.8
20260509031053 6 35 0.0 0.0 0.00 0.03 0.00 93 1019.7
20260509030553 6 35 0.0 0.0 0.00 0.03 0.00 93 1019.8
20260509030055 6 35 0.0 1.6 0.00 0.03 0.00 93 1019.8
20260509025552 6 35 0.0 3.2 0.00 0.03 0.00 93 1019.8
20260509025053 6 35 1.6 4.8 0.00 0.03 0.00 93 1019.9
20260509024552 6 35 1.6 4.8 0.00 0.03 0.00 93 1020.0
20260509024053 6 35 1.6 4.8 0.00 0.03 0.00 93 1020.0
20260509023553 6 35 1.6 4.8 0.00 0.03 0.00 93 1020.0
20260509023051 6 35 0.0 4.8 0.00 0.03 0.00 93 1019.9
20260509022551 6 35 0.0 4.8 0.00 0.03 0.00 92 1019.9
20260509022051 5 35 0.0 4.8 0.00 0.03 0.00 92 1019.8
20260509021550 6 35 0.0 4.8 0.00 0.03 0.00 92 1019.8
20260509021049 6 35 1.6 4.8 0.00 0.03 0.00 92 1019.8
20260509020549 6 35 1.6 4.8 0.00 0.03 0.00 92 1019.8
20260509020055 6 35 0.0 0.0 0.00 0.03 0.00 92 1019.6
20260509015548 6 35 0.0 0.0 0.00 0.03 0.00 92 1019.6
20260509015048 6 35 0.0 1.6 0.00 0.03 0.00 92 1019.6
20260509014550 6 35 0.0 3.2 0.00 0.03 0.00 92 1019.7
20260509014049 6 35 1.6 4.8 0.00 0.03 0.00 92 1019.7
20260509013545 6 35 1.6 4.8 0.00 0.03 0.00 92 1019.8
20260509013043 6 35 1.6 4.8 0.00 0.03 0.00 92 1019.8
20260509012542 6 35 0.0 4.8 0.00 0.03 0.00 92 1019.8
20260509012043 7 35 0.0 3.2 0.00 0.03 0.00 92 1019.7
20260509011542 7 35 0.0 3.2 0.00 0.03 0.00 92 1019.7
20260509011041 7 35 0.0 3.2 0.00 0.03 0.00 92 1019.9
20260509010540 7 35 0.0 3.2 0.00 0.03 0.00 91 1019.7
20260509010040 7 35 1.6 4.8 0.00 0.03 0.00 91 1019.9
20260509005540 7 35 1.6 4.8 0.00 0.03 0.00 91 1019.9
20260509005040 7 35 0.0 4.8 0.00 0.03 0.00 91 1019.9
20260509004540 7 35 3.2 4.8 0.00 0.03 0.00 91 1019.9
20260509004039 7 35 1.6 4.8 0.00 0.03 0.00 91 1019.9
20260509003538 7 35 1.6 4.8 0.00 0.03 0.00 91 1019.9
20260509003042 7 35 1.6 4.8 0.00 0.03 0.00 91 1019.9
20260509002538 7 35 1.6 3.2 0.00 0.03 0.00 91 1020.0
20260509002040 7 35 1.6 3.2 0.00 0.03 0.00 91 1019.9
20260509001535 7 35 0.0 0.0 0.00 0.03 0.00 91 1019.9
20260509001035 7 35 0.0 0.0 0.00 0.03 0.00 91 1019.8
20260509000534 7 35 0.0 0.0 0.00 0.03 0.00 91 1019.9
20260509000034 7 35 0.0 0.0 0.00 0.03 0.00 91 1020.0
20260508235533 7 35 0.0 0.0 0.00 0.03 0.00 91 1019.9
20260508235033 7 35 0.0 0.0 0.00 0.03 0.00 91 1020.0
20260508234532 7 35 0.0 0.0 0.00 0.03 0.00 91 1020.0
20260508234034 7 35 0.0 0.0 0.00 0.03 0.00 91 1020.1
20260508233532 7 35 0.0 0.0 0.00 0.03 0.00 90 1019.9
20260508233031 7 35 0.0 0.0 0.00 0.03 0.00 90 1019.9
20260508232530 7 35 0.0 0.0 0.00 0.03 0.00 90 1020.0
20260508232030 7 35 0.0 0.0 0.00 0.03 0.00 90 1019.9
20260508231531 8 35 0.0 0.0 0.00 0.03 0.00 90 1020.0
20260508231029 8 35 0.0 0.0 0.00 0.03 0.00 90 1019.9
20260508230529 8 35 0.0 0.0 0.00 0.03 0.00 90 1019.9
20260508230029 8 35 0.0 0.0 0.00 0.03 0.00 90 1020.0
20260508225528 8 35 0.0 0.0 0.00 0.03 0.00 90 1020.0
20260508225029 8 35 0.0 0.0 0.00 0.03 0.00 89 1019.9
20260508224529 8 35 0.0 0.0 0.00 0.03 0.00 89 1019.9
20260508224026 8 35 0.0 3.2 0.00 0.03 0.00 89 1019.9
20260508223525 8 35 0.0 4.8 0.00 0.03 0.00 89 1019.9
20260508223028 8 35 0.0 4.8 0.00 0.03 0.00 88 1019.9
20260508222524 8 35 0.0 4.8 0.00 0.03 0.00 88 1019.9
20260508222023 8 35 1.6 4.8 0.00 0.03 0.00 88 1019.8
20260508221522 8 35 0.0 4.8 0.00 0.03 0.00 88 1019.8
20260508221030 8 35 1.6 4.8 0.00 0.03 0.00 88 1019.8
20260508220522 8 35 0.0 3.2 0.00 0.03 0.00 88 1019.8
20260508220020 8 35 1.6 3.2 0.00 0.03 0.00 89 1019.8
20260508215520 8 35 0.0 0.0 0.00 0.03 0.03 88 1019.6
20260508215020 8 35 0.0 0.0 0.00 0.03 0.03 88 1019.7
20260508214520 8 35 0.0 0.0 0.00 0.03 0.03 88 1019.6
20260508214020 8 35 0.0 1.6 0.00 0.03 0.03 88 1019.7
20260508213520 9 35 0.0 3.2 0.00 0.03 0.03 88 1019.6
20260508213024 9 35 0.0 3.2 0.00 0.03 0.03 87 1019.6
20260508212520 9 35 0.0 0.0 0.00 0.03 0.03 87 1019.5
20260508212019 9 35 0.0 1.6 0.00 0.03 0.03 87 1019.5
20260508211520 9 35 0.0 3.2 0.00 0.03 0.03 86 1019.3
20260508211020 9 35 0.0 3.2 0.00 0.03 0.03 87 1019.4
20260508210519 9 35 0.0 1.6 0.00 0.03 0.03 86 1019.4
20260508210019 10 35 0.0 0.0 0.00 0.03 0.03 86 1019.5
20260508205519 10 35 0.0 3.2 0.00 0.03 0.03 85 1019.4
20260508205023 10 35 0.0 3.2 0.00 0.03 0.03 85 1019.2
20260508204519 10 35 0.0 3.2 0.00 0.03 0.03 84 1019.4
20260508204019 10 35 0.0 3.2 0.00 0.03 0.03 84 1019.3
20260508203518 10 35 0.0 3.2 0.00 0.03 0.03 84 1019.2
20260508203018 10 35 0.0 3.2 0.00 0.03 0.03 83 1019.2
20260508202517 10 35 1.6 3.2 0.00 0.03 0.03 83 1019.2
20260508202018 10 35 0.0 1.6 0.00 0.03 0.03 83 1019.2
20260508201517 11 35 0.0 1.6 0.00 0.03 0.03 82 1019.2
20260508201017 11 35 0.0 4.8 0.00 0.03 0.03 81 1019.2
20260508200517 11 35 0.0 4.8 0.00 0.03 0.03 81 1019.2
20260508200021 11 35 1.6 4.8 0.00 0.03 0.03 80 1019.2
20260508195518 11 35 1.6 6.4 0.00 0.03 0.03 80 1019.1
20260508195017 11 36 3.2 4.8 0.00 0.03 0.03 79 1019.1
20260508194517 11 36 1.6 4.8 0.00 0.03 0.03 79 1019.0
20260508194018 11 36 1.6 4.8 0.00 0.03 0.03 78 1019.0
20260508193516 12 36 1.6 3.2 0.00 0.03 0.03 77 1018.9
20260508193017 12 36 1.6 4.8 0.00 0.03 0.03 77 1018.9
20260508192516 12 36 1.6 6.4 0.00 0.03 0.03 76 1018.8
20260508192021 12 36 1.6 4.8 0.00 0.03 0.03 75 1018.9
20260508191524 12 36 1.6 6.4 0.00 0.03 0.03 74 1018.7
20260508191017 13 30 1.6 6.4 0.00 0.03 0.03 73 1018.6
20260508190518 13 30 1.6 6.4 0.00 0.03 0.03 72 1018.6
20260508190022 13 30 1.6 6.4 0.00 0.03 0.03 72 1018.4
20260508185515 13 30 0.0 4.8 0.00 0.03 0.03 71 1018.3
20260508185015 13 30 0.0 6.4 0.00 0.03 0.03 71 1018.3
20260508184516 13 30 1.6 6.4 0.00 0.03 0.03 71 1018.3
20260508184015 14 18 1.6 4.8 0.00 0.03 0.03 70 1018.3
20260508183514 14 17 0.0 4.8 0.00 0.03 0.03 69 1018.2
20260508183015 14 17 1.6 6.4 0.00 0.03 0.03 69 1018.1
20260508182515 14 26 0.0 6.4 0.00 0.03 0.03 69 1018.2
20260508182014 15 26 1.6 6.4 0.00 0.03 0.03 68 1018.2
20260508181516 15 27 1.6 8.0 0.00 0.03 0.03 67 1018.2
20260508181014 15 29 1.6 8.0 0.00 0.03 0.03 67 1018.0
20260508180514 15 29 3.2 6.4 0.00 0.03 0.03 66 1018.1
20260508180014 16 23 1.6 6.4 0.00 0.03 0.03 64 1018.1
20260508175514 16 22 3.2 6.4 0.00 0.03 0.03 62 1018.0
20260508175016 16 24 1.6 6.4 0.00 0.03 0.03 63 1018.0
20260508174514 16 65 1.6 8.0 0.00 0.03 0.03 61 1018.0
20260508174013 16 27 3.2 8.0 0.00 0.03 0.03 60 1017.9
20260508173513 16 34 1.6 8.0 0.00 0.03 0.03 60 1017.8
20260508173013 16 77 3.2 11.3 0.00 0.03 0.03 59 1017.8
20260508172512 16 86 3.2 9.7 0.00 0.03 0.03 59 1017.8
20260508172012 16 50 1.6 8.0 0.00 0.03 0.03 61 1017.7
20260508171519 16 50 3.2 8.0 0.00 0.03 0.03 60 1017.8
20260508171012 16 26 1.6 8.0 0.00 0.03 0.03 60 1017.8
20260508170512 16 48 3.2 8.0 0.00 0.03 0.03 59 1017.8
20260508170012 16 48 3.2 9.7 0.00 0.03 0.03 58 1017.6
20260508165511 16 35 1.6 14.5 0.00 0.03 0.03 58 1017.6
20260508165017 17 49 3.2 14.5 0.00 0.03 0.03 55 1017.7
20260508164512 17 182 1.6 6.4 0.00 0.03 0.03 51 1017.7
20260508164012 17 190 3.2 6.4 0.00 0.03 0.03 50 1017.7
20260508163513 17 229 0.0 4.8 0.00 0.03 0.03 52 1017.6
20260508163014 17 229 1.6 4.8 0.00 0.03 0.03 52 1017.6
20260508162510 17 229 1.6 4.8 0.00 0.03 0.03 53 1017.7
20260508162011 17 229 1.6 4.8 0.00 0.03 0.03 54 1017.6
20260508161510 17 229 3.2 4.8 0.00 0.03 0.03 51 1017.7
20260508161010 17 229 0.0 4.8 0.00 0.03 0.03 51 1017.7
20260508160510 17 229 1.6 4.8 0.00 0.03 0.03 52 1017.7
20260508160009 17 229 0.0 8.0 0.00 0.03 0.03 52 1017.7
20260508155509 17 229 3.2 8.0 0.00 0.03 0.03 48 1017.8
20260508155010 17 229 3.2 6.4 0.00 0.03 0.03 52 1017.8
20260508154510 18 229 3.2 6.4 0.00 0.03 0.03 51 1017.7
20260508154008 18 230 1.6 4.8 0.00 0.03 0.03 55 1017.8
20260508153510 17 230 1.6 4.8 0.00 0.03 0.03 51 1017.8
20260508153008 17 230 0.0 3.2 0.00 0.03 0.03 49 1017.8
20260508152510 17 230 1.6 6.4 0.00 0.03 0.03 50 1017.9
20260508152007 17 230 3.2 8.0 0.00 0.03 0.03 55 1018.0
20260508151507 17 229 4.8 8.0 0.00 0.03 0.03 55 1018.1
20260508151011 17 225 3.2 8.0 0.00 0.03 0.03 53 1018.0
20260508150506 17 224 3.2 8.0 0.00 0.03 0.03 55 1018.0
20260508150006 17 194 4.8 6.4 0.00 0.03 0.03 54 1018.2
20260508145505 17 156 3.2 8.0 0.00 0.03 0.03 51 1018.1
20260508145004 17 155 3.2 8.0 0.00 0.03 0.03 54 1018.1
20260508144505 17 150 1.6 4.8 0.00 0.03 0.03 50 1018.2
20260508144004 17 150 1.6 4.8 0.00 0.03 0.03 53 1018.2
20260508143504 17 150 1.6 4.8 0.00 0.03 0.03 53 1018.3
20260508143004 18 150 3.2 8.0 0.00 0.03 0.03 52 1018.3
20260508142502 17 133 1.6 9.7 0.00 0.03 0.03 48 1018.4
20260508142003 17 122 0.0 9.7 0.00 0.03 0.03 48 1018.4
20260508141503 18 123 3.2 8.0 0.00 0.03 0.03 50 1018.4
20260508141003 18 248 1.6 6.4 0.00 0.03 0.03 48 1018.6
20260508140503 17 250 1.6 4.8 0.00 0.03 0.03 51 1018.6
20260508140002 17 250 1.6 9.7 0.00 0.03 0.03 50 1018.5
20260508135502 16 250 3.2 9.7 0.00 0.03 0.03 51 1018.5
20260508135002 17 287 3.2 6.4 0.00 0.03 0.03 49 1018.6
20260508134501 17 341 0.0 3.2 0.00 0.03 0.03 51 1018.5
20260508134001 17 341 0.0 4.8 0.00 0.03 0.03 51 1018.6
20260508133503 17 341 1.6 9.7 0.00 0.03 0.03 53 1018.6
20260508133002 17 341 4.8 9.7 0.00 0.03 0.03 51 1018.6
20260508132503 16 355 0.0 8.0 0.00 0.03 0.03 53 1018.5
20260508132100 16 5 1.6 9.7 0.00 0.03 0.03 53 1018.7
20260508131601 16 355 3.2 9.7 0.00 0.03 0.03 52 1018.6
20260508131101 17 346 3.2 8.0 0.00 0.03 0.03 50 1018.7
20260508130600 17 337 1.6 8.0 0.00 0.03 0.03 50 1018.7
20260508130100 17 330 1.6 8.0 0.00 0.03 0.03 50 1018.7
20260508125600 17 321 1.6 6.4 0.00 0.03 0.03 48 1018.8
20260508125059 18 34 1.6 8.0 0.00 0.03 0.03 51 1018.8
20260508124603 17 34 3.2 8.0 0.00 0.03 0.03 46 1018.8
20260508124058 17 340 1.6 9.7 0.00 0.03 0.03 49 1018.8
20260508123558 18 355 0.0 8.0 0.00 0.03 0.03 48 1018.7
20260508123058 17 355 1.6 8.0 0.00 0.03 0.03 52 1018.8
20260508122557 16 360 1.6 6.4 0.00 0.03 0.03 51 1018.7
20260508122059 16 360 1.6 8.0 0.00 0.03 0.03 50 1018.9
20260508121601 17 68 0.0 8.0 0.00 0.03 0.03 55 1018.9
20260508121056 17 315 3.2 9.7 0.00 0.03 0.03 60 1018.9
20260508120557 17 167 4.8 9.7 0.00 0.03 0.03 55 1018.8
20260508120056 17 98 3.2 9.7 0.00 0.03 0.03 55 1018.8
20260508115556 17 348 0.0 4.8 0.00 0.03 0.03 58 1018.9
20260508115054 16 348 1.6 6.4 0.00 0.03 0.03 55 1018.8
20260508114554 17 348 1.6 12.9 0.00 0.03 0.03 55 1018.8
20260508114054 16 351 3.2 12.9 0.00 0.03 0.03 55 1018.9
20260508113553 16 163 1.6 8.0 0.00 0.03 0.03 58 1018.9
20260508113105 15 164 1.6 8.0 0.00 0.03 0.03 59 1018.9
20260508112552 16 164 4.8 8.0 0.00 0.03 0.03 56 1019.0
20260508112052 16 166 3.2 8.0 0.00 0.03 0.03 61 1018.9
20260508111557 16 184 3.2 8.0 0.00 0.03 0.03 66 1019.0
20260508111053 16 219 3.2 9.7 0.00 0.03 0.03 64 1019.1
20260508110552 16 267 1.6 12.9 0.00 0.03 0.03 63 1019.0
20260508110057 16 340 3.2 12.9 0.00 0.03 0.03 61 1019.1
20260508105551 15 81 3.2 9.7 0.00 0.03 0.03 62 1019.2
20260508105053 15 86 3.2 8.0 0.00 0.03 0.03 62 1019.2
20260508104552 15 57 0.0 6.4 0.00 0.03 0.03 62 1019.3
20260508104049 16 96 1.6 6.4 0.00 0.03 0.03 66 1019.3
20260508103550 15 94 1.6 6.4 0.00 0.03 0.03 67 1019.6
20260508103046 15 355 1.6 8.0 0.00 0.03 0.03 66 1019.3
20260508102547 15 341 3.2 9.7 0.00 0.03 0.03 64 1019.4
20260508102047 14 98 1.6 9.7 0.00 0.03 0.03 67 1019.4
20260508101548 15 98 1.6 9.7 0.00 0.03 0.03 66 1019.5
20260508101046 15 87 3.2 9.7 0.00 0.03 0.03 66 1019.5
20260508100545 15 196 1.6 6.4 0.00 0.03 0.03 70 1019.5
20260508100045 14 320 0.0 6.4 0.00 0.03 0.03 69 1019.5
20260508095545 14 320 0.0 6.4 0.00 0.03 0.03 68 1019.5
20260508095044 13 320 1.6 8.0 0.00 0.03 0.03 69 1019.5
20260508094544 14 319 4.8 8.0 0.00 0.03 0.03 68 1019.7
20260508094044 14 185 1.6 9.7 0.00 0.03 0.03 72 1019.6
20260508093543 13 188 1.6 9.7 0.00 0.03 0.03 71 1019.7
20260508093047 13 340 0.0 8.0 0.00 0.03 0.03 70 1019.8
20260508092543 13 340 0.0 8.0 0.00 0.03 0.03 73 1019.8
20260508092039 13 334 3.2 12.9 0.00 0.03 0.03 72 1019.8
20260508091549 12 348 4.8 12.9 0.00 0.03 0.03 72 1019.8
20260508091040 12 144 0.0 4.8 0.00 0.03 0.03 72 1019.8
20260508090538 12 144 0.0 4.8 0.00 0.03 0.03 76 1019.9
20260508090041 12 144 0.0 4.8 0.00 0.03 0.03 75 1019.9
20260508085537 12 144 1.6 4.8 0.00 0.03 0.03 74 1019.8
20260508085036 12 146 0.0 4.8 0.00 0.03 0.03 77 1019.9
20260508084536 12 146 0.0 6.4 0.00 0.03 0.03 77 1019.9
20260508084037 12 145 1.6 6.4 0.00 0.03 0.03 75 1019.9
20260508083534 12 146 0.0 4.8 0.00 0.03 0.03 80 1019.9
20260508083037 11 146 1.6 6.4 0.00 0.03 0.03 77 1020.0
20260508082536 12 145 3.2 6.4 0.00 0.03 0.03 77 1019.9
20260508082034 12 55 1.6 4.8 0.00 0.03 0.03 76 1020.1
20260508081534 11 53 0.0 6.4 0.00 0.03 0.03 76 1020.1
20260508081033 11 53 3.2 6.4 0.00 0.03 0.03 77 1020.0
20260508080533 11 55 1.6 6.4 0.00 0.03 0.03 78 1020.0
20260508080035 11 56 0.0 4.8 0.00 0.03 0.03 79 1020.0
20260508075533 11 5 1.6 4.8 0.00 0.03 0.03 80 1020.0
20260508075033 11 5 0.0 4.8 0.00 0.03 0.03 80 1020.1
20260508074544 11 5 1.6 4.8 0.00 0.03 0.03 82 1020.1
20260508074031 11 5 0.0 3.2 0.00 0.03 0.03 82 1020.0
20260508073534 11 5 0.0 4.8 0.00 0.03 0.03 82 1020.1
20260508073032 11 5 0.0 4.8 0.00 0.03 0.03 85 1020.1
20260508072527 10 5 0.0 3.2 0.00 0.03 0.03 85 1019.9
20260508072027 10 5 1.6 3.2 0.00 0.03 0.03 84 1020.0
20260508071531 10 5 0.0 3.2 0.00 0.03 0.03 87 1019.9
20260508071028 10 5 0.0 3.2 0.00 0.03 0.03 88 1019.8
20260508070524 9 5 0.0 3.2 0.00 0.03 0.03 89 1019.8
20260508070024 8 5 0.0 1.6 0.00 0.03 0.03 89 1019.7
20260508065523 8 5 0.0 1.6 0.00 0.03 0.03 90 1019.8
20260508065023 8 5 0.0 1.6 0.00 0.03 0.03 90 1019.8
20260508064523 8 5 0.0 3.2 0.00 0.03 0.03 90 1019.7
20260508064024 8 5 0.0 3.2 0.00 0.03 0.03 91 1019.7
20260508063522 8 5 0.0 3.2 0.00 0.03 0.03 91 1019.7
20260508063021 7 5 0.0 4.8 0.00 0.03 0.03 92 1019.6
20260508062521 7 5 1.6 4.8 0.00 0.03 0.03 92 1019.5
20260508062022 7 5 0.0 4.8 0.00 0.03 0.03 92 1019.5
20260508061522 7 5 1.6 4.8 0.00 0.03 0.03 92 1019.6
20260508061020 7 5 0.0 3.2 0.00 0.03 0.03 92 1019.4
20260508060520 7 5 1.6 4.8 0.00 0.03 0.03 92 1019.3
20260508060019 7 5 1.6 4.8 0.00 0.03 0.03 92 1019.4
20260508055521 7 5 1.6 4.8 0.00 0.03 0.03 92 1019.3
20260508055019 6 5 1.6 4.8 0.00 0.03 0.03 92 1019.3
20260508054519 7 5 0.0 6.4 0.00 0.03 0.03 93 1019.3
20260508054018 6 5 3.2 6.4 0.00 0.03 0.03 93 1019.3
20260508053517 6 5 0.0 4.8 0.00 0.03 0.03 93 1019.3
20260508053017 6 5 0.0 3.2 0.00 0.03 0.03 93 1019.2
20260508052516 6 5 0.0 3.2 0.00 0.03 0.03 93 1019.1
20260508052016 6 5 0.0 4.8 0.00 0.03 0.03 93 1019.1